EST,Max TemperatureF,Mean TemperatureF,Min TemperatureF,Max Dew PointF,MeanDew PointF,Min DewpointF,Max Humidity, Mean Humidity, Min Humidity, Max Sea Level PressureIn, Mean Sea Level PressureIn, Min Sea Level PressureIn, Max VisibilityMiles, Mean VisibilityMiles, Min VisibilityMiles, Max Wind SpeedMPH, Mean Wind SpeedMPH, Max Gust SpeedMPH,PrecipitationIn, CloudCover, Events, WindDirDegrees
2012-11-1,35,34,32,30,28,19,93,83,52,29.84,29.78,29.73,10,10,7,10,7,22,0.00,7,,266
2012-11-2,42,37,32,27,21,16,75,54,36,29.99,29.87,29.79,10,10,10,15,5,21,0.00,4,,288
2012-11-3,41,36,32,32,24,21,93,67,49,30.11,30.05,29.99,10,10,3,12,7,20,0.08,5,Rain,324
2012-11-4,46,38,30,32,28,18,93,74,32,30.06,30.02,29.98,10,10,10,9,3,,0.00,5,,344
2012-11-5,42,32,21,23,21,18,93,69,36,30.10,30.06,30.03,10,10,10,7,1,,0.00,0,,275
2012-11-6,37,28,19,25,22,18,93,75,56,30.10,30.02,29.92,10,10,10,7,3,,0.00,0,,59
2012-11-7,41,31,21,28,23,19,100,75,49,29.96,29.90,29.84,10,9,4,10,1,,0.00,4,,357
2012-11-8,42,32,23,23,19,10,93,61,27,30.15,30.08,29.96,10,10,10,10,3,17,0.00,0,,296
2012-11-9,51,38,24,28,23,19,86,61,30,30.26,30.21,30.15,10,10,10,9,2,,0.00,0,,230
2012-11-10,60,42,24,30,26,21,87,56,25,30.37,30.32,30.25,10,10,10,6,1,,0.00,0,,233
2012-11-11,66,47,28,41,30,25,93,57,24,30.45,30.39,30.34,10,10,10,13,3,24,0.00,0,,158
2012-11-12,59,48,37,48,43,34,93,68,55,30.38,30.27,30.17,10,10,5,16,6,25,0.18,7,Rain,196
2012-11-13,37,30,23,32,22,18,93,68,45,30.43,30.36,30.30,10,10,5,9,5,,0.06,2,Rain,316
2012-11-14,39,28,17,23,20,14,93,71,49,30.46,30.39,30.34,10,10,10,6,2,,0.00,0,,52
2012-11-15,41,31,21,25,22,19,93,71,45,30.34,30.28,30.23,10,10,7,6,1,,0.00,0,,16
2012-11-16,50,34,19,28,22,16,93,69,32,30.42,30.32,30.26,10,10,7,5,0,,0.00,0,,325
2012-11-17,51,36,21,27,18,12,93,58,22,30.51,30.47,30.42,10,10,10,8,3,18,0.00,0,,51
2012-11-18,48,36,24,30,24,19,80,64,43,30.52,30.47,30.42,10,10,10,9,5,,0.00,1,,48
2012-11-19,50,39,28,32,29,21,87,73,50,30.44,30.32,30.20,10,10,10,8,3,,0.00,3,,9
2012-11-20,50,39,28,32,29,23,93,73,47,30.19,30.13,30.07,10,10,10,6,1,,0.00,1,,220
2012-11-21,55,39,23,28,20,12,93,59,21,30.22,30.17,30.12,10,10,10,7,1,,0.00,0,,326
2012-11-22,53,37,21,27,21,18,93,60,28,30.27,30.21,30.14,10,10,10,5,1,,0.00,0,,280
2012-11-23,51,36,21,36,26,18,93,69,47,30.14,30.01,29.89,10,10,10,15,4,23,0.00,3,,275
2012-11-24,32,28,23,21,14,12,69,63,55,30.08,30.03,29.97,10,10,7,13,8,25,0.00,8,Snow,305
2012-11-25,44,30,17,14,11,5,79,49,20,30.07,30.01,29.92,10,10,10,14,5,18,0.00,2,,246
2012-11-26,48,36,24,34,20,12,93,53,34,30.18,30.12,30.02,10,10,7,9,1,,0.01,4,Rain,284
2012-11-27,35,34,32,34,31,27,93,88,80,30.22,30.16,30.10,10,9,3,8,3,,0.01,8,Rain,306
2012-11-28,35,29,23,27,20,16,86,65,44,30.37,30.30,30.22,10,10,10,12,5,18,0.00,3,,290
2012-11-29,42,28,14,23,17,12,93,69,31,30.42,30.35,30.30,10,10,7,7,1,,0.00,0,,233
2012-11-30,50,34,17,27,21,14,86,67,34,30.36,30.30,30.25,10,10,10,7,1,,0.00,1,,211